This is the latest recevied weather packets stored in our database for station/object TG8ARF-18. If no packets are shown the sender has not sent any weather packets the latest 10 day(s).
| Time | Temp. | Humidity | Pressure | Rain* | Wind** | Luminosity | Snow |
|---|---|---|---|---|---|---|---|
| 1778097618 | 20° C | 69% | 1014 hPa | 0 mm | - | - | - |
| 1778097018 | 18.89° C | 69% | 1014 hPa | 0 mm | - | - | - |
| 1778096417 | 18.89° C | 69% | 1014 hPa | 0 mm | - | - | - |
| 1778095817 | 26.67° C | 67% | 1015 hPa | 0 mm | - | - | - |
| 1778095216 | 23.33° C | 62% | 1015 hPa | 0 mm | - | - | - |
| 1778094616 | 22.22° C | 62% | 1015 hPa | 0 mm | - | - | - |
| 1778094015 | 21.11° C | 62% | 1015 hPa | 0 mm | - | - | - |
| 1778093414 | 20° C | 62% | 1015 hPa | 0 mm | - | - | - |
| 1778092814 | 18.89° C | 62% | 1015 hPa | 0 mm | - | - | - |
| 1778092213 | 25.56° C | 60% | 1015 hPa | 0 mm | - | - | - |
| 1778091612 | 26.11° C | 58% | 1015 hPa | 0 mm | - | - | - |
| 1778091012 | 25° C | 59% | 1015 hPa | 0 mm | - | - | - |
| 1778090411 | 25° C | 59% | 1015 hPa | 0 mm | - | - | - |
| 1778089811 | 24.44° C | 59% | 1015 hPa | 0 mm | - | - | - |
| 1778088568 | 23.89° C | 64% | 1016 hPa | 0 mm | - | - | - |
| 1778087967 | 22.78° C | 64% | 1016 hPa | 0 mm | - | - | - |
| 1778087367 | 21.67° C | 64% | 1016 hPa | 0 mm | - | - | - |
| 1778086766 | 20.56° C | 64% | 1016 hPa | 0 mm | - | - | - |
| 1778086166 | 24.44° C | 69% | 1016 hPa | 0 mm | - | - | - |
| 1778085560 | 23.33° C | 69% | 1016 hPa | 0 mm | - | - | - |
| 1778084959 | 23.33° C | 69% | 1016 hPa | 0 mm | - | - | - |
| 1778084369 | 22.22° C | 69% | 1016 hPa | 0 mm | - | - | - |
| 1778083768 | 21.11° C | 69% | 1016 hPa | 0 mm | - | - | - |
| 1778083167 | 20° C | 69% | 1016 hPa | 0 mm | - | - | - |
| 1778082567 | 23.33° C | 83% | 1016 hPa | 0 mm | - | - | - |
* Rain latest hour (hover to see other rain measurements)
** Current wind speed in m/s (hover to see current wind gust speed)